Regional Weather Roundup
Issued by NWS Cleveland, OH

Home | Current Version | Previous Version | Text Only | Print | Product List | Glossary Off
Versions: 1 2 3 4 5 6 7 8 9 10 11 12 13 14 15 16 17 18 19 20 21 22 23 24 25 26 27 28 29 30 31 32 33 34 35 36 37 38 39 40 41 42 43 44 45 46 47 48 49 50

000
ASUS41 KCLE 190000
RWRCLE
OHIO REGIONAL WEATHER ROUNDUP
NATIONAL WEATHER SERVICE WILMINGTON, OH
700 PM EST SAT NOV 18 2017

NOTE: "FAIR" INDICATES FEW OR NO CLOUDS BELOW 12,000 FEET WITH NO
SIGNIFICANT WEATHER AND/OR OBSTRUCTIONS TO VISIBILITY.

OHZ001>008-015>018-024>027-034-035-043-044-190100-
   NORTHWEST OHIO

CITY           SKY/WX    TMP DP  RH WIND       PRES   REMARKS
DEFIANCE       LGT RAIN  40  37  89 N23G32    29.35R
FINDLAY        LGT RAIN  46  42  86 N18G30    29.28R FOG
TOLEDO EXPRESS LGT RAIN  43  42  97 NW22G33   29.30R FOG
TOLEDO EXEC    CLOUDY    45  42  89 N22G29    29.29R
LIMA           NOT AVBL
$$

OHZ009>014-019>023-028>033-038-089-190100-
   NORTHEAST OHIO

CITY           SKY/WX    TMP DP  RH WIND       PRES   REMARKS
CLE-HOPKINS    CLOUDY    56  54  93 S16       29.18S
CLE-LAKEFRONT  LGT RAIN  55  52  89 S17G24    29.14S
CUY CO. ARPT   LGT RAIN  57  54  88 S17G29    29.15F
LORAIN-ELYRIA  LGT RAIN  54  49  83 NW13      29.17S
ASHTABULA      LGT RAIN  51  49  92 S16G29    29.19F
AKRON-CANTON   RAIN      56  53  90 SW13      29.25S FOG
WOOSTER        NOT AVBL
MANSFIELD      CLOUDY    56  54  93 SW15G25   29.19F
YOUNGSTOWN     RAIN      50  49  96 S13       29.25F FOG
$$

OHZ042-051>053-060>062-070>072-077>081-190100-
  SOUTHWEST OHIO

CITY           SKY/WX    TMP DP  RH WIND       PRES   REMARKS
CINC-COVINGTON CLOUDY    51  51 100 NW29G38   29.32R
CINC-LUNKEN    LGT RAIN  60  57  89 NW26G37   29.31R
HAMILTON       CLOUDY    51  49  92 NW23G31   29.35R
DAYTON         NOT AVBL
WRIGHT-PAT AFB NOT AVBL
DAYTON GENERAL CLOUDY    49  47  93 NW24G32   29.30R
WILMINGTON     CLOUDY    59  59 100 S16       29.23R
$$

OHZ036-037-039>041-045>050-054>059-063>069-073>076-082>088-190100-
  CENTRAL AND SOUTHEAST OHIO

CITY           SKY/WX    TMP DP  RH WIND       PRES   REMARKS
COLUMBUS       HVY RAIN  61  59  93 SW17G30   29.23S FOG
OSU AIRPORT    RAIN      59  59 100 SW15G22   29.22S FOG
BOLTON FIELD   RAIN      61  57  88 SW16G23   29.23F
RICKENBACK AFB NOT AVBL
NEWARK         LGT RAIN  61  56  83 S15G28    29.22F
MARION         LGT RAIN  57  54  89 W12G20    29.22R
LANCASTER      LGT RAIN  60  58  92 S18G32    29.24F
ZANESVILLE     RAIN      59  56  89 S20       29.26S FOG
NEW PHILLY     HVY RAIN  57  55  93 NW7       29.28R VSB 1
$$



USA.gov is the U.S. government's official web portal to all federal, state and local government web resources and services.